Track COSMOS 2147 now! 10-day predictions COSMOS 2147 is classified as:
1 21303U 91033E 18115.73738184 +.00000001 +00000-0 -50089-4 0 9990 2 21303 082.5708 026.0581 0017561 296.6906 091.5087 12.65081120244030